Tracking 25689 objects as of 7-Jul-2022
HD Live streaming from Space Station
objects crossing your sky now

FENGYUN 1C DEB

Track FENGYUN 1C DEB now!
10-day predictions


NORAD ID: 35185
Int'l Code: 1999-025DNR
Perigee: 547.5 km
Apogee: 693.8 km
Inclination: 99.5 °
Period: 97.0 minutes
Semi major axis: 6991 km
RCS: 0.0085 m2 (small)
Launch date: May 10, 1999
Source: People's Republic of China (PRC)
Launch site: Taiyaun Space Center, China (TSC)

Note: This is SATELLITE DEBRIS
aabbcc
Your satellite tracking list
Your tracking list is empty




NASA's NSSDC Master Catalog

Two Line Element Set (TLE):
1 35185U 99025DNR 22186.40184083  .00005469  00000-0  58938-3 0  9994
2 35185  99.5438  68.2397 0104592 183.8646 176.1767 14.85024968771168
Source of the keplerian elements: AFSPC